Location: Newark
(44.1667°N, 8.2500°E)
Time: 15:58:29
(UTC+00:00)

SR - All Passes

Search period start: 14 December 2019 00:00
Search period end: 24 December 2019 00:00
Orbit: 573 x 882 km, 66.7° (Epoch: 13 December)

Date Brightness Start Highest point End Pass type
(mag) Time Alt. Az. Time Alt. Az. Time Alt. Az.
14 Dec - 06:45:17 10° SSE 06:49:16 21° ESE 06:53:27 10° ENE daylight
14 Dec - 08:25:16 10° SW 08:30:48 67° NW 08:36:42 10° NNE daylight
14 Dec - 10:10:20 10° WNW 10:14:05 17° NNW 10:17:56 10° N daylight
14 Dec - 15:23:29 10° NNW 15:28:29 28° NE 15:33:17 10° E daylight
14 Dec - 17:05:17 10° NW 17:11:06 64° WSW 17:16:31 10° SSE visible
15 Dec - 07:35:38 10° SSW 07:41:07 69° ESE 07:46:58 10° NE daylight
15 Dec - 09:19:05 10° W 09:23:49 26° NW 09:28:43 10° NNE daylight
15 Dec - 14:34:13 10° N 14:38:13 18° NE 14:42:07 10° ENE daylight
15 Dec - 16:15:32 10° NNW 16:21:27 73° ENE 16:26:58 10° SE visible
15 Dec - 17:58:58 10° WNW 18:02:52 19° WSW 18:06:38 10° SSW visible
16 Dec - 06:46:38 10° S 06:51:39 37° ESE 06:56:58 10° NE daylight
16 Dec - 08:28:25 10° WSW 08:33:44 41° NW 08:39:19 10° NNE daylight
16 Dec - 10:15:06 10° NW 10:17:33 13° NNW 10:20:01 10° N daylight
16 Dec - 13:45:16 10° N 13:47:47 13° NNE 13:50:16 10° NE daylight
16 Dec - 15:25:59 10° NNW 15:31:35 42° NE 15:36:52 10° ESE daylight
16 Dec - 17:08:22 10° NW 17:13:37 36° WSW 17:18:34 10° S visible
17 Dec - 05:58:30 10° SSE 06:02:23 20° ESE 06:06:25 10° ENE visible
17 Dec - 07:38:18 10° SW 07:43:51 71° NW 07:49:46 10° NNE daylight
17 Dec - 09:23:13 10° WNW 09:27:05 18° NW 09:31:04 10° N daylight
17 Dec - 14:36:35 10° NNW 14:41:30 26° NE 14:46:13 10° E daylight
17 Dec - 16:18:21 10° NW 16:24:10 67° WSW 16:29:36 10° SSE visible
18 Dec - 06:48:43 10° SSW 06:54:12 66° ESE 07:00:02 10° NE daylight
18 Dec - 08:32:02 10° W 08:36:50 27° NW 08:41:49 10° NNE daylight
18 Dec - 13:47:21 10° N 13:51:13 18° NNE 13:55:00 10° ENE daylight
18 Dec - 15:28:37 10° NNW 15:34:30 69° NE 15:39:59 10° SE daylight
18 Dec - 17:11:56 10° WNW 17:15:59 20° WSW 17:19:52 10° SSW visible
19 Dec - 05:59:46 10° S 06:04:44 35° ESE 06:10:00 10° NE visible
19 Dec - 07:41:24 10° WSW 07:46:46 43° NW 07:52:25 10° NNE daylight
19 Dec - 09:27:54 10° NW 09:30:32 13° NNW 09:33:11 10° N daylight
19 Dec - 12:58:27 10° N 13:00:46 12° NNE 13:03:03 10° NE daylight
19 Dec - 14:39:05 10° NNW 14:44:37 40° NE 14:49:50 10° ESE daylight
19 Dec - 16:21:24 10° NW 16:26:43 38° WSW 16:31:41 10° S visible
20 Dec - 05:11:44 10° SSE 05:15:29 19° ESE 05:19:23 10° ENE visible
20 Dec - 06:51:19 10° SW 06:56:55 75° WNW 07:02:51 10° NNE daylight
20 Dec - 08:36:06 10° W 08:40:06 19° NW 08:44:11 10° N daylight
20 Dec - 13:49:41 10° NNW 13:54:31 25° NE 13:59:08 10° E daylight
20 Dec - 15:31:25 10° NW 15:37:15 71° WSW 15:42:39 10° SSE daylight
20 Dec - 17:17:39 10° W 17:18:10 10° W 17:18:42 10° WSW visible
21 Dec - 06:01:47 10° SSW 06:07:16 62° ESE 06:13:05 10° NE visible
21 Dec - 07:44:57 10° WSW 07:49:51 28° NW 07:54:56 10° NNE daylight
21 Dec - 13:00:29 10° N 13:04:13 17° NNE 13:07:52 10° ENE daylight
21 Dec - 14:41:43 10° NNW 14:47:33 66° NE 14:53:00 10° SE daylight
21 Dec - 16:24:53 10° WNW 16:29:05 21° WSW 16:33:04 10° SSW visible
22 Dec - 05:12:55 10° S 05:17:50 33° ESE 05:23:02 10° NE visible
22 Dec - 06:54:22 10° WSW 06:59:48 45° NW 07:05:30 10° NNE daylight
22 Dec - 08:40:43 10° WNW 08:43:31 13° NNW 08:46:20 10° N daylight
22 Dec - 12:11:38 10° N 12:13:45 12° NNE 12:15:50 10° NE daylight
22 Dec - 13:52:11 10° NNW 13:57:39 38° NE 14:02:48 10° ESE daylight
22 Dec - 15:34:26 10° NW 15:39:48 40° WSW 15:44:48 10° S daylight
23 Dec - 04:24:59 10° SE 04:28:36 18° ESE 04:32:20 10° ENE visible
23 Dec - 06:04:20 10° SW 06:09:58 78° WNW 06:15:56 10° NNE visible
23 Dec - 07:48:59 10° W 07:53:06 19° NW 07:57:19 10° N daylight
23 Dec - 13:02:48 10° NNW 13:07:32 24° NE 13:12:03 10° E daylight
23 Dec - 14:44:28 10° NW 14:50:19 75° WSW 14:55:43 10° SSE daylight
23 Dec - 16:29:56 10° W 16:31:17 11° W 16:32:37 10° WSW visible
